Regional Weather Roundup
Issued by NWS Kansas City/Pleasant Hill, MO

Home | Current Version | Previous Version | Graphics & Text | Print | Product List | Glossary Off
Versions: 1 2 3 4 5 6 7 8 9 10 11 12 13 14 15 16 17 18 19 20 21 22 23 24 25 26 27 28

000
ASUS43 KEAX 241510
RWREAX

WEATHER ROUNDUP FOR EASTERN KANSAS AND NORTHWEST MISSOURI
NATIONAL WEATHER SERVICE KANSAS CITY/PLEASANT HILL MO
1000 AM CDT SAT JUN 24 2017

KSZ040-057-103>105-MOZ028-029-037-043-241600-
...KANSAS CITY METROPOLITAN AREA...

CITY           SKY/WX    TMP DP  RH WIND       PRES   REMARKS
K.C. INTL      SUNNY     71  47  42 CALM      30.24R
K.C. DOWNTOWN  SUNNY     73  42  32 VRB6      30.22R
LEES SUMMIT    SUNNY     72  45  37 N8        30.24R
OLATHE - IXD   SUNNY     71  47  42 N8        30.25R
OLATHE - OJC   SUNNY     71  44  37 N10       30.24R
LAWRENCE       SUNNY     72  47  40 N3        30.24R

$$

MOZ001>008-011>017-020>025-030>033-038>040-044>046-053-054-241600-
...NORTHERN AND CENTRAL MISSOURI...

CITY           SKY/WX    TMP DP  RH WIND       PRES   REMARKS
ST. JOSEPH     SUNNY     70  46  42 VRB5      30.22R
MOSBY          SUNNY     70  41  35 N3        30.23R
WARRENSBURG    SUNNY     70  45  40 NW9       30.22R
WHITEMAN AFB   SUNNY     71  45  38 N16       30.19R
CLINTON        SUNNY     72  54  53 N12       30.21R
SEDALIA        SUNNY     73  51  46 N15G21    30.21R
WARSAW         NOT AVBL
CHILLICOTHE      N/A     71  42  35 VRB7      30.20R
KIRKSVILLE     SUNNY     69  45  41 NW9G21    30.17R

$$

MOZ041-047>049-056>058-063>065-088>090-097-241600-
...EASTERN AND SOUTHERN MISSOURI...

CITY           SKY/WX    TMP DP  RH WIND       PRES   REMARKS
ST. LOUIS INTL MOSUNNY   74  47  38 NW15G25   30.12R
SPIRIT OF STL  MOSUNNY   73  48  41 NW15      30.12R
COLUMBIA       SUNNY     71  52  50 NW15      30.17R
JEFFERSON CITY SUNNY     73  49  42 NW9       30.16R
ROLLA          MOSUNNY   69  54  58 NW8       30.16R
OSAGE BEACH    MOSUNNY   72  53  51 VRB7      30.19R
SPRINGFIELD    MOSUNNY   72  56  57 N7        30.20R
BRANSON        PTSUNNY   70  57  64 CALM      30.22R
JOPLIN         MOSUNNY   74  59  59 CALM      30.22R
WEST PLAINS    MOSUNNY   73  55  53 N9        30.19R

$$

IAZ060-094-KSZ022-034>040-054-083-096-NEZ052-066-093-241600-
...KANSAS...SOUTHEAST NEBRASKA AND IOWA...

CITY           SKY/WX    TMP DP  RH WIND       PRES   REMARKS
TOPEKA         SUNNY     71  50  47 CALM      30.25R
MANHATTAN      SUNNY     71  47  42 VRB3      30.26R
EMPORIA        SUNNY     72  49  44 NE7       30.26R
WICHITA        CLOUDY    71  57  61 W3        30.27R
OMAHA          SUNNY     69  44  40 W8        30.18S
LINCOLN        SUNNY     70  46  42 W7        30.22R
FALLS CITY     SUNNY     69  45  41 W5        30.22R
LAMONI         SUNNY     68  45  43 NW12      30.18R
DES MOINES     MOSUNNY   69  41  36 NW14      30.13R

$$





USA.gov is the U.S. government's official web portal to all federal, state and local government web resources and services.